Location: Ostrava
(49.8330°N, 18.2830°E)
Time: 18:43:44
(UTC+02:00)

Cosmos 2219 Rocket - Visible Passes

Search period start: 30 March 2017 00:00
Search period end: 09 April 2017 00:00
Orbit: 829 x 846 km, 71.0° (Epoch: 28 March)

Date Brightness Start Highest point End Pass type
(mag) Time Alt. Az. Time Alt. Az. Time Alt. Az.
30 Mar 3.3 03:59:47 19° SSE 04:03:12 39° ESE 04:08:22 10° NE visible
30 Mar 2.7 05:41:52 10° WSW 05:47:09 42° NW 05:52:29 10° NNE visible
31 Mar 3.3 03:44:10 23° SSE 03:46:53 37° ESE 03:51:59 10° NE visible
31 Mar 2.7 05:25:54 12° WSW 05:30:46 44° NW 05:36:09 10° NNE visible
01 Apr 3.4 03:28:28 26° SSE 03:30:35 34° ESE 03:35:35 10° NE visible
01 Apr 2.6 05:10:12 16° WSW 05:14:24 47° NW 05:19:49 10° NNE visible
02 Apr 3.4 03:12:42 27° SE 03:14:16 32° ESE 03:19:11 10° NE visible
02 Apr 2.5 04:54:26 21° WSW 04:58:01 50° NW 05:03:30 10° NNE visible
03 Apr 3.5 02:56:54 28° SE 02:57:58 30° ESE 03:02:46 10° NE visible
03 Apr 2.4 04:38:38 26° WSW 04:41:39 53° NW 04:47:09 10° NNE visible
04 Apr 3.5 02:41:03 27° ESE 02:41:39 28° ESE 02:46:21 10° NE visible
04 Apr 2.4 04:22:47 31° WSW 04:25:17 56° NW 04:30:50 10° NNE visible
05 Apr 3.6 02:25:10 26° ESE 02:25:21 26° ESE 02:29:55 10° NE visible
05 Apr 2.3 04:06:53 37° WSW 04:08:55 60° WNW 04:14:29 10° NNE visible
06 Apr 3.8 02:09:14 24° E 02:09:14 24° E 02:13:29 10° NE visible
06 Apr 2.2 03:50:57 44° WSW 03:52:33 64° WNW 03:58:09 10° NNE visible
06 Apr 4.0 05:34:01 10° WNW 05:37:41 17° NW 05:41:23 10° N visible
07 Apr 3.9 01:53:16 23° E 01:53:16 23° E 01:57:02 10° NE visible
07 Apr 2.2 03:34:59 52° WSW 03:36:12 68° WNW 03:41:49 10° NNE visible
07 Apr 4.0 05:17:28 10° WNW 05:21:15 18° NW 05:25:05 10° N visible
08 Apr 4.0 01:37:17 21° E 01:37:17 21° E 01:40:35 10° NE visible
08 Apr 2.1 03:18:59 61° WSW 03:19:50 72° WNW 03:25:29 10° NNE visible
08 Apr 3.9 05:00:56 10° W 05:04:51 19° NW 05:08:47 10° N visible
